Погода Оловянная

Погода Оловянная : погода сейчас, прогноз погоды и архив. Всё, что Вы хотите узнать о погоде Оловянная!

Хотите узнать прогноз погоды Оловянная? Тогда Вам сюда: Погода Оловянная

Поиск расширенной информации на нашем сайте:

Другие новости

Новости СМИ2

Главная страница сайта

Новости сайта

03.07.2017

Напоминаем, что на нашем специализированном сайте Метеоцентр.Азия вы можете получить высокодетализированные автоматические прогнозы погоды по пунктам России, СНГ и мира в авиационном формате (включающие направление и скорость ветра, видимость, явления погоды, количество и форму облачности, нижнюю и верхнюю границу облачности).

Рекомендуем: Общение на форуме

Погода Оловянная - сегодня

Время (UTC), дата Ветер
(°,м/с) 
Видим.   Явления Облачность Т
(°С)
Тd
(°С)
f(%) Тe
(°С)
Pmin
(гПа)
dP
(гПа)
Po
(мм)
O2
(г/м3)
Тmin Tmax R s Состояние
почвы
00 21.09.17 120 (ЮВ) 20000 м    10/0 верхняя 
[Cs]
+13 +0.3 42 +14  994  -2.1  691  266  +9.5        сухая 
03 21.09.17 130 (ЮВ) 6-10{10}  20000 м    10/0 верхняя 
[Cs]
+19.4 +0.2 28 +20  990.3  -1.9  690  259           
06 21.09.17 140 (ЮВ) 9-14{15}  20000 м    10/10 2000 м 
[Ns]
+20.9 +0.7 26 +21  987.7  -2  688  257           
09 21.09.17 120 (ЮВ) 6-10{14}  20000 м    8/8 2000 м средняя 
[Ac lent]
+20.5 +1.6 28 +21  986.1  -1.6  687  257           
12 21.09.17 150 (ЮВ) 5{10}  20000 м    8/8 2000 м средняя 
[Ac lent]
+15.7 +2.8 42 +15  987.1  -0.2  687  261    +21.4       
15 21.09.17 130 (ЮВ) 20000 м    6/6 2000 м средняя 
[Ac lent]
+12.9 +2.5 49 +12  988  0.2  687  264           
18 21.09.17 160 (Ю) 3{10}  20000 м    4/4 2000 м средняя 
[Ac lent]
+8.3 +2 64 +8  990.3  0.9  688  268           
21 21.09.17 360 (С) 20000 м    4/4 2000 м средняя 
[Ac lent]
+4.9 +1.4 78 +6  991.4  0.2  688  272           
00 22.09.17 010 (С) 20000 м    10/10 2000 м 
[Ns]
+5.8 +1.8 75 +7  991.9  0.7  688  271  +4.4        сухая 
03 22.09.17 320 (СЗ) 10 км  слаб. дождь  10/10 2000 м 
[Ns]
+5.3 +3.6 89 +5  992.7  0.6  689  272           
06 22.09.17 260 (З) 10 км  слаб. дождь  10/10 2000 м 
[Ns]
+6.3 +4.6 89 +5  993.4  689  271           
09 22.09.17 270 (З) 6-10{11}  20000 м  в посл. час дождь  10/10 1000 м 
[Sc]
+7.4 +2.5 71 +5  994.7  1.4  690  270           
12 22.09.17 280 (З) 4{13}  20000 м  {дождь}  10/10 1000 м 
[Sc]
+7.3 +1.8 68 +6  997.2  2.2  692  271    +7.7     
15 22.09.17 230 (ЮЗ) 20000 м    8/8 2000 м средняя 
[Ac lent]
+4.1 +1.1 81 +3  999.6  1.4  693  275           
18 22.09.17 300 (СЗ) н/о    н/о 
+2.3 -0 85 +3  1001.1  0.9  694  277           
21 22.09.17 290 (З) н/о    н/о 
+2.1 -2 74 +3  1003  1.7  695  278           
00 23.09.17 230 (ЮЗ) 20000 м    ясно 
+4.8 -1.2 65 +4  1004.5  697  276  +0.7        влажная 
03 23.09.17 290 (З) 4{10}  20000 м    ясно 
+9.7 -2.9 41 +9  1003.3  0.2  697  271           
06 23.09.17 270 (З) 20000 м    1/0 верхняя 
[Cs]
+12.9 -4.6 29 +12  1002.1  -0.3  697  268           
09 23.09.17 290 (З) 3{11}  20000 м    5/3 2000 м средняя, верхняя 
[Ac lent|Ci ing]
+12.5 -4.6 30 +12  1003  0.7  697  269           
12 23.09.17 тихо ()   20000 м    8/8 2000 м средняя 
[Ac lent]
+8.5 -1.6 49 +9  1006  1.7  698  273    +13.7       
15 23.09.17 250 (З) 20000 м    4/4 2000 м средняя 
[Ac lent]
+4.3 -0.2 73 +5  1008.5  1.3  699  277           
18 23.09.17 300 (СЗ) 20000 м    ясно 
+2.9 -0.8 77 +4  1010.7  1.6  701  279           
21 23.09.17 260 (З) 20000 м    ясно 
+2.3 -2.4 71 1012.6  1.6  702  281           
00 24.09.17 340 (С) 20000 м    ясно 
+3.2 -1.9 69 +4  1013.8  1.4  703  280  +0.9        сухая 
Время (UTC), дата Ветер
(°,м/с) 
Видим.   Явления Облачность Т
(°С)
Тd
(°С)
f(%) Тe
(°С)
Pmin
(гПа)
dP
(гПа)
Po
(мм)
O2
(г/м3)
Тmin Tmax R s Состояние
почвы

Для получения пояснительной информации подведите курсор к названию столбца.

ПОГОДА Оловянная - архив

Всё, что Вы хотите узнать о погоде Оловянная - удобно и подробно!

Выберите нужную дату (начиная с 1 января 2015* года) и нажмите кнопку "Найти".
Будут отображены архивные сводки погоды по пункту Оловянная, начиная с указанной даты.


Отображать данные в формате CSV (для использования в таблицах Excel)


Внимание! Наш архив погоды предназначен исключительно для личного некоммерческого использования в познавательных целях. Если Вам необходимы официальные справки о состоянии погоды (для производственных, юридических, коммерческих и т.п. целей), обращайтесь в органы Росгидромета.

*Примечание: данная дата относится к архиву по метеостанциям СССР (Россия, СНГ, Балтия).
Архив по метеостанциям Зарубежной Европы и Азии (кроме Китая) хранится 10 дней, по другим регионам земного шара (Китай, Африка, Америка, Австралия, Океания) - 1 день.

Оловянная - район местоположения метеостанции


Название, широта, долгота, высота метеостанции:
Оловянная 50.9°ш. 115.6°д. 640 м над ур. моря [Российская Федерация]

Дополнительная информация

В oтличие oт бoльшинства пoгoдных сайтoв мы публикуем пoдрoбную метеoинфoрмацию в детальнoм прoфессиoнальнoм фoрмате.

Характеристики температуры и влажнoсти вoздуха измеряются на высoте 2 м в тени вдали oт зданий и деревьев.
Скoрoсть ветра измеряется на высoте 10 м (на урoвне рoста челoвека скoрoсть ветра ниже в 1.5-2 раза). Если метеoстанция нахoдится в гoрoде или в лесу, тo скoрoсть ветра занижена на 2-4 м/с пo сравнению с oткрытым местoм. Скoрoсть ветра над акватoриями крупных рек и oзёр, а также на вершинах хoлмoв на 2-5 м/с выше, чем в oбычных услoвиях.
Атмoсфернoе давление в разных тoчках местнoсти мoжет значительнo oтличаться oт давления на метеoстанции, в зависимoсти oт услoвий рельефа (при пoдъёме на 10 м давление пoнижается примернo на 1 мм рт.ст.).